Regional Weather Roundup
Issued by NWS

Home | Current Version | Previous Version | Text Only | Print | Product List | Glossary On
Versions: 1 2 3 4 5 6 7 8 9 10 11 12 13 14 15 16 17 18 19 20 21 22 23 24 25 26 27
000
ASUS45 KBOU 240407
RWRCO

WEATHER ROUNDUP FOR COLORADO
NATIONAL WEATHER SERVICE DENVER/BOULDER CO
1000 PM MDT MON OCT 23 2017

NOTE: "FAIR" INDICATES FEW OR NO CLOUDS BELOW 12000 FEET WITH NO
SIGNIFICANT WEATHER AND/OR OBSTRUCTIONS TO VISIBILITY.

COZ001>005-013-030-031-240500-
...NORTHWEST COLORADO...

CITY           SKY/WX    TMP DP  RH WIND       PRES   REMARKS
CRAIG          FAIR      39  24  55 SW10      30.59
HAYDEN         FAIR      40  23  50 SW3       30.60R
MEEKER         FAIR      41  24  51 VRB5      30.59
RABBIT EARS PA FAIR      30  19  64 NW9G20    30.66R WCI  22
STEAMBOAT SPGS FAIR      40  21  46 CALM      30.59R
WALDEN         NOT AVBL
$$

COZ006>008-011-240500-
...WEST CENTRAL VALLEYS...

CITY           SKY/WX    TMP DP  RH WIND       PRES   REMARKS
GRAND JUNCTION FAIR      61  22  22 N8        30.48
MONTROSE       FAIR      45  28  51 SE7       30.54
EAGLE          NOT AVBL
RIFLE          FAIR      49  22  34 CALM      30.56
DELTA          FAIR      52  25  34 SE6       30.50R
NUCLA          FAIR      55  21  26 W7        30.54S
$$

COZ017>023-064>068-240500-
...SOUTHWEST COLORADO...

CITY           SKY/WX    TMP DP  RH WIND       PRES   REMARKS
DURANGO        FAIR      54  21  27 N10       30.43
CORTEZ         FAIR      46  26  45 E6        30.48
PAGOSA SPRINGS FAIR      45  23  41 CALM      30.50R
TELLURIDE      FAIR      46  23  40 W10       30.63R
WOLF CREEK PAS FAIR      34  12  40 NW7       30.74F WCI  28
$$

COZ009-010-012-014-032>034-037-058>063-240500-
...CENTRAL COLORADO...

CITY           SKY/WX    TMP DP  RH WIND       PRES   REMARKS
ASPEN          FAIR      42  24  49 NW5       30.60
BUENA VISTA    FAIR      42  26  53 SE7       30.56R
COPPER MTN     FAIR      32  18  55 MISG      30.70F
BERTHOUD PASS  FAIR      21  10  63 NW33G46   30.63S WCI   2
COTTONWOOD PAS FAIR      46  21  36 W12G21    30.61R
GUNNISON       FAIR      42  24  49 CALM      30.56R
KREMMLING      FAIR      43  21  42 CALM      30.61R
LEADVILLE      FAIR      34  14  43 N10       30.61  WCI  26
MONARCH PASS   FAIR      32  16  51 N6        30.80R WCI  26
SALIDA         FAIR      41  30  65 SE7       30.63R
SUNLIGHT       FAIR      32  14  47 CALM      30.74R
WILKERSON PASS FAIR      32  12  43 N14G24    30.67R WCI  22
$$

COZ069>075-240500-
...SAN LUIS VALLEY/SANGRE DE CRISTO MOUNTAINS...

CITY           SKY/WX    TMP DP  RH WIND       PRES   REMARKS
ALAMOSA        FAIR      53  19  26 NW16      30.47
DEL NORTE      FAIR      48  18  30 NW3       30.53R
LA VETA PASS   FAIR      28  25  86 N8        30.70R WCI  20
SAGUACHE       FAIR      45  23  42 N8        30.53R
$$

COZ035-036-038>040-240500-
...NORTHERN COLORADO FRONT RANGE...

CITY           SKY/WX    TMP DP  RH WIND       PRES   REMARKS
DENVER INTL AP FAIR      35  22  58 SE9       30.53  WCI  28
DMNS CITY PARK   N/A     41  30  65 E8        30.55R
AURORA         PTCLDY    36  24  63 S9        30.54R
FRONT RANGE AP FAIR      36  25  64 S5        30.55R
ERIE MUNI ARPT FAIR      35  31  87 CALM      30.60R
BOULDER MUN AP FAIR      41  32  70 CALM      30.54R
CENTENNIAL     FAIR      37  24  59 S5        30.54
BROOMFIELD     CLEAR     43  28  56 CALM      30.54
FORT COLLINS   FAIR      41  32  70 NW5       30.55R
LONGMONT       FAIR      41  32  69 W5        30.56R
$$

COZ041-046-047-076>085-087-088-240500-
...PIKES PEAK/PALMER DIVIDE AND SOUTHERN FOOTHILLS...

CITY           SKY/WX    TMP DP  RH WIND       PRES   REMARKS
COLO. SPRINGS  FAIR      40  24  53 N5        30.56R
A. F. ACADEMY  FAIR      31  23  72 N9        30.55R WCI  22
SCHRIEVER AFB  FAIR      39  22  48 N8        30.55R
CHEYENNE MTN   FAIR      41  27  57 CALM      30.50R
ELLICOTT         N/A    N/A N/A N/A N12       30.54R
FALCON         FAIR      37  21  50 N6        30.57R
FORT CARSON    FAIR      36  24  60 NW7       30.53R
LIMON          FAIR      27  20  75 NW3       30.53R
MONUMENT HILL  FAIR      28  21  74 CALM      30.58R
CANON CITY     FAIR      43  32  65 CALM      30.53R
WALSENBURG     FAIR      37  30  75 W3        30.55R
TRINIDAD       FAIR      39  26  59 N3        30.54R
$$

COZ042>045-048>051-090-091-240500-
...NORTHEAST COLORADO...

CITY           SKY/WX    TMP DP  RH WIND       PRES   REMARKS
GREELEY ARPT   FAIR      38  29  70 N8        30.55R
AKRON          FAIR      39  18  42 NW12      30.49
BURLINGTON     MOCLDY    37  22  54 NW10      30.48
WRAY           NOT AVBL
YUMA           FAIR      43  19  39 NW10G16   30.47R
STERLING       NOT AVBL
HOLYOKE        FAIR      45  21  39 NW13      30.45R
FORT MORGAN    FAIR      39  17  41 NW9       30.53R
$$

COZ086-089-092>099-240500-
...SOUTHEAST COLORADO...

CITY           SKY/WX    TMP DP  RH WIND       PRES   REMARKS
PUEBLO         FAIR      39  25  57 N7        30.52
LA JUNTA       FAIR      45  25  45 W7        30.51
LAMAR          FAIR      37  22  54 SW5       30.47
SPRINGFIELD      N/A     37  25  61 W9        30.49R
$$




USA.gov is the U.S. government's official web portal to all federal, state and local government web resources and services.